Orbital Elements at Epoch 2459200.5 (2020-Dec-17.0) TDB
Reference: JPL 21 (heliocentric ecliptic J2000)
Element | Value | Uncertainty (1-sigma) | Units |
e | .1278923081031129 | 6.0182e-08 | |
a | 2.29756499264772 | 8.5012e-09 | au |
q | 2.003724102721091 | 1.3856e-07 | au |
i | 5.751331229666463 | 9.2652e-06 | deg |
node | 340.587203028186 | 3.2977e-05 | deg |
peri | 53.83575401940747 | 5.198e-05 | deg |
M | 93.03329866749885 | 3.7059e-05 | deg |
tp | 2458871.772486960932 (2020-Jan-23.27248696) | 0.00013107 | TDB |
period | 1272.038145363613 3.48 | 7.06e-06 1.933e-08 | d yr |
n | .2830103808695876 | 1.5707e-09 | deg/d |
Q | 2.591405882574349 | 9.5884e-09 | au |
|
| | Orbit Determination Parameters
Additional Information
|